sat.trackr.live / text

‹ back to catalog

STARLINK-3900

NORAD 52461 · 2022-049L

PAYLOAD ACTIVE UNKNOWN

§ Identity

Operator
Country
US
Launch date
2022-05-06
Launch site
AFETR
Launch vehicle
Mass (kg)
RCS (m²)

Purposes: comms

External: N2YO · Heavens-Above · Gunter

§ Orbital elements

Epoch: 2026-09-19T16:40:40.688832Z

Period
93.90 min
Inclination
53.1581°
Eccentricity
0.0001361
Mean motion
15.33530034 rev/d
Perigee alt
464.4 km
Apogee alt
466.2 km
Semi-major
6,843.4 km
B*
7.5330e-5
RAAN
247.7758°
Arg perigee
96.0639°
Mean anomaly
264.0518°
Rev number
24,181

§ Raw data

STARLINK-39001 52461U 22049L   26262.69491538  .00002104  00000+0  75330-4 0  99962 52461  53.1581 247.7758 0001361  96.0639 264.0518 15.33530034241816

JSON: /api/v1/satellites/52461 · /tle

For live sub-satellite position, see the globe view (requires WebGL).

§ Visibility from observer

Set your observer location to see the next 7 days of passes ≥ 10°. The values pass through the URL so the page stays shareable.

No JS? Fill the form by hand. The geolocation button needs JavaScript.